Flag for Austria Weather past 2 weeks in Stockerau, Lower Austria, Austria

Now
75 °F

Passing clouds.


Feels Like: 77 °F
Forecast: 61 / 82 °F
Wind: 7 mph from Northeast

Location: Tulln Airport

Current Time: Jul 29, 2014 at 9:17:31 PM

Latest Report: Jul 29, 2014 at 7:50 PM


Visibility: 19 mi

Pressure: 29.68 "Hg

Humidity: 74%

Dew point: 66 °F

Location of StockerauLocation

Historic Weather in Stockerau — Graph

°F

Stockerau temperature yesterday

Maximum temperature yesterday: 79 °F (at 3:50 PM)
Minimum temperature yesterday: 64 °F (at 5:50 AM)
Average temperature yesterday: 70 °F

Past Weeks' High & Low Weather Summary

 TemperatureHumidityPressure
High91 °F (Jul 20, 1:50 PM)100% (Jul 16, 5:50 AM)30.15 "Hg (Jul 16, 5:50 AM)
Low57 °F (Jul 24, 5:50 AM)33% (Jul 18, 2:50 PM)29.68 "Hg (Jul 29, 7:50 PM)
Average75 °F66%29.94 "Hg
* Reported Jul 14 7:50 PM — Jul 29 7:50 PM, Stockerau, Weather by CustomWeather, © 2014

Note: Actual official high and low records may vary slightly from our data, if they occured in-between our weather recording intervals... More about our weather records

Advertising

Stockerau weather history for previous 24 hours

 ConditionsComfort  
Time TempWeatherWind HumidityBarometerVisibility
7:50 PM
Jul 29
75 °FPassing clouds.7 mph74%29.68 "Hg19 mi
6:50 PM77 °FPassing clouds.9 mph74%29.71 "Hg19 mi
5:50 PM79 °FPassing clouds.13 mph65%29.71 "Hg19 mi
4:50 PM79 °FScattered clouds.13 mph70%29.74 "Hg16 mi
3:50 PM77 °FScattered clouds.12 mph69%29.74 "Hg16 mi
2:50 PM79 °FPartly sunny.13 mph61%29.74 "Hg16 mi
1:50 PM77 °FBroken clouds.9 mph65%29.77 "Hg16 mi
12:50 PM77 °FPartly sunny.14 mph65%29.77 "Hg16 mi
11:50 AM75 °FPartly sunny.10 mph69%29.77 "Hg11 mi
10:50 AM72 °FPartly sunny.8 mph78%29.80 "Hg11 mi
9:50 AM70 °FBroken clouds.8 mph88%29.80 "Hg9 mi
8:50 AM70 °FBroken clouds.8 mph83%29.77 "Hg9 mi
7:50 AM68 °FPartly sunny.6 mph88%29.80 "Hg6 mi
6:50 AM66 °FPartly sunny.8 mph94%29.80 "Hg5 mi
5:50 AM66 °FPassing clouds.8 mph94%29.77 "Hg5 mi
10:50 PM
Jul 28
68 °FPassing clouds.3 mph88%29.83 "Hg6 mi
9:50 PM68 °FPassing clouds.1 mph94%29.83 "Hg7 mi
Weather by CustomWeather, © 2014

See weather overviewHow to use our weather pages